Main page
METAR-TAF:

METAR-TAF

Airports :

Taos Regional Airport

Taos, New Mexico, United States

latitude: 36-27N, longitude: 105-40W, elevation: 7088 ft

Current weather observation

The report was made 33 minutes ago, at 08:56 UTC
Wind 3 mph from the Northeast
Temperature 55°F
Humidity 94%
Pressure 30.44 in. Hg
Visibility: 10 miles
Clear sky

METAR: KSKX 170856Z AUTO 04003KT 10SM CLR 13/12 A3044 RMK AO2 SLP230 T01280122 58004 $

Time: 03:29 (09:29 UTC)


TAF: missing

Weather observations and forecasts of more than 4000 airports (METAR and TAF reports).

The available stations are represented by yellow and red dots on the map.

Hover mouse over dot to see the name of the station.

Then click to see weather observations and forecasts.

To change the map : click on the green buttons with a black cross to zoom in, on the green button with a dash to zoom out, or on the green arrows for adjacent maps.


METAR-TAF: